Home > Weather > Narvik > Past weeks

Flag for Norway Past Weather in Narvik, Norway — Yesterday and Last 2 Weeks

Now
50 °F

Overcast.


Feels Like: 48 °F
Forecast: 43 / 52 °F
Wind: 5 mph from Southwest

Location: Evenes

Current Time: Aug 26, 2016 at 3:39:33 AM

Latest Report: Aug 26, 2016 at 2:50 AM


Visibility: N/A

Pressure: 30.07 "Hg

Humidity: 76%

Dew Point: 43 °F

Location of NarvikLocation

Past Weather in Narvik — Graph

°F

Narvik Temperature Yesterday

Maximum temperature yesterday: 54 °F (at 10:20 AM)
Minimum temperature yesterday: 45 °F (at 12:50 AM)
Average temperature yesterday: 49 °F

High & Low Weather Summary for the Past Weeks

 TemperatureHumidityPressure
High73 °F (Aug 18, 4:50 PM)100% (Aug 11, 2:20 AM)30.30 "Hg (Aug 11, 2:20 AM)
Low37 °F (Aug 15, 4:20 AM)41% (Aug 18, 4:50 PM)29.65 "Hg (Aug 13, 12:50 AM)
Average53 °F82%30.00 "Hg
* Reported Aug 11 2:20 AM — Aug 26 2:20 AM, Narvik, Weather by CustomWeather, © 2016

Note: Actual official high and low records may vary slightly from our data, if they occured in-between our weather recording intervals... More about our weather records

Advertising

Narvik Weather History for the Previous 24 Hours

Scroll right to see more
 ConditionsComfort  
Time TempWeatherWind HumidityBarometerVisibility
2:20 AM
Fri, Aug 26
50 °FMostly cloudy.6 mph76%30.07 "HgN/A
1:50 AM50 °FSprinkles. Partly cloudy.2 mph76%30.07 "HgN/A
12:50 AM46 °FSprinkles. Passing clouds.2 mph93%30.07 "HgN/A
11:50 PM
Thu, Aug 25
46 °FSprinkles. Passing clouds.1 mph93%30.07 "HgN/A
10:50 PM46 °FSprinkles. Passing clouds.2 mph93%30.04 "HgN/A
9:50 PM48 °FSprinkles. Partly sunny.1 mph87%30.04 "HgN/A
8:50 PM50 °FBroken clouds.1 mph76%30.04 "HgN/A
7:50 PM50 °FPartly sunny.3 mph76%30.04 "HgN/A
6:50 PM52 °FPartly sunny.5 mph67%30.04 "HgN/A
5:50 PM54 °FScattered clouds.7 mph63%30.01 "HgN/A
4:50 PM52 °FPartly sunny.8 mph77%30.01 "HgN/A
3:50 PM52 °FPartly sunny.7 mph77%30.01 "HgN/A
2:50 PM50 °FPartly sunny.7 mph88%30.01 "HgN/A
1:50 PM50 °FBroken clouds.8 mph94%29.98 "HgN/A
12:50 PM52 °FPartly sunny.9 mph82%29.98 "HgN/A
11:50 AM54 °FPartly sunny.8 mph72%29.95 "HgN/A
10:50 AM54 °FPartly sunny.8 mph72%29.95 "HgN/A
10:20 AM54 °FPartly sunny.9 mph77%29.95 "HgN/A
9:50 AM52 °FPartly sunny.9 mph77%29.95 "HgN/A
8:50 AM52 °FPartly sunny.6 mph82%29.95 "HgN/A
7:50 AM50 °FPartly sunny.9 mph88%29.92 "HgN/A
6:50 AM48 °FScattered clouds.8 mph94%29.92 "HgN/A
6:20 AM48 °FPassing clouds.9 mph94%29.92 "HgN/A
5:50 AM48 °FClear.9 mph94%29.92 "Hg10 mi
5:20 AM48 °FOvercast.8 mph87%29.92 "HgN/A
4:50 AM48 °FPassing clouds.6 mph87%29.92 "HgN/A
4:20 AM46 °FPassing clouds.5 mph93%29.92 "HgN/A
3:50 AM45 °FPassing clouds.3 mph100%29.95 "HgN/A
3:20 AM45 °FPassing clouds.1 mph100%29.95 "HgN/A
Weather by CustomWeather, © 2016

See weather overviewHow to use our weather pages